,,,PA_Meas_PMT16A,,PR_Meas_QMR101_102,,RH_Meas_QMH101,,SR_Meas_QMS101,,TA_Meas_QMH101,,GenWind,,GenWind,
date,time,status,PA,status,PR,status,RH,status,SR,status,TA,status,DirAvg,status,SpdAvg,
2009-03-08, 00:00:05,VALID,1004.31,VALID,0,VALID,89.7156,VALID,0,VALID,24.6964,VALID,27,VALID,0.165625,
2009-03-08, 00:01:05,VALID,1004.34,VALID,0,VALID,89.5859,VALID,0,VALID,24.6769,VALID,27,VALID,0.321094,
2009-03-08, 00:02:05,VALID,1004.33,VALID,0,VALID,89.2732,VALID,0,VALID,24.675,VALID,1,VALID,1.05039,
2009-03-08, 00:03:05,VALID,1004.31,VALID,0,VALID,89.3647,VALID,0,VALID,24.6945,VALID,87,VALID,0.363281,
2009-03-08, 00:04:05,VALID,1004.27,VALID,0,VALID,89.3037,VALID,0,VALID,24.7353,VALID,84,VALID,0.194922,
2009-03-08, 00:05:05,VALID,1004.27,VALID,0,VALID,89.3189,VALID,0,VALID,24.7353,VALID,58,VALID,0.0199219,
2009-03-08, 00:06:05,VALID,1004.23,VALID,0,VALID,89.3571,VALID,0,VALID,24.7353,VALID,58,VALID,0,
2009-03-08, 00:07:05,VALID,1004.24,VALID,0,VALID,89.4486,VALID,0,VALID,24.7548,VALID,58,VALID,0,
2009-03-08, 00:08:05,VALID,1004.21,VALID,0,VALID,89.3418,VALID,0,VALID,24.7335,VALID,58,VALID,0,
2009-03-08, 00:09:05,VALID,1004.18,VALID,0,VALID,89.235,VALID,0,VALID,24.7353,VALID,58,VALID,0,
2009-03-08, 00:10:05,VALID,1004.17,VALID,0,VALID,89.3189,VALID,0,VALID,24.7353,VALID,58,VALID,0.271875,
2009-03-08, 00:11:05,VALID,1004.15,VALID,0,VALID,89.174,VALID,0,VALID,24.7159,VALID,58,VALID,0.102344,
2009-03-08, 00:12:05,VALID,1004.12,VALID,0,VALID,89.3723,VALID,0,VALID,24.7353,VALID,58,VALID,0.0695312,
2009-03-08, 00:13:05,VALID,1004.16,VALID,0,VALID,89.5478,VALID,0,VALID,24.7353,VALID,58,VALID,0,
2009-03-08, 00:14:05,VALID,1004.16,VALID,0,VALID,89.5631,VALID,0,VALID,24.7353,VALID,58,VALID,0,
2009-03-08, 00:15:05,VALID,1004.12,VALID,0,VALID,89.3876,VALID,0,VALID,24.7353,VALID,58,VALID,0,
2009-03-08, 00:16:05,VALID,1004.12,VALID,0,VALID,89.5478,VALID,0,VALID,24.6964,VALID,58,VALID,0,
2009-03-08, 00:17:05,VALID,1004.13,VALID,0,VALID,89.3189,VALID,0,VALID,24.6945,VALID,58,VALID,0,
2009-03-08, 00:18:05,VALID,1004.13,VALID,0,VALID,89.3418,VALID,0,VALID,24.7159,VALID,56,VALID,0.00078125,
2009-03-08, 00:19:05,VALID,1004.12,VALID,0,VALID,89.3571,VALID,0,VALID,24.7353,VALID,6,VALID,0.338672,
2009-03-08, 00:20:05,VALID,1004.1,VALID,0,VALID,89.2503,VALID,0.100563,VALID,24.7159,VALID,6,VALID,0.25,
2009-03-08, 00:21:05,VALID,1004.11,VALID,0,VALID,89.0595,VALID,0.100563,VALID,24.7335,VALID,52,VALID,0.1375,
2009-03-08, 00:22:05,VALID,1004.13,VALID,0,VALID,88.556,VALID,0,VALID,24.7335,VALID,52,VALID,0.308984,
2009-03-08, 00:23:05,VALID,1004.14,VALID,0,VALID,88.3119,VALID,0,VALID,24.7743,VALID,52,VALID,0,
2009-03-08, 00:24:05,VALID,1004.15,VALID,0,VALID,88.4111,VALID,0,VALID,24.7919,VALID,52,VALID,0.0269531,
2009-03-08, 00:25:05,VALID,1004.16,VALID,0,VALID,88.4569,VALID,0,VALID,24.8113,VALID,52,VALID,0.0078125,
2009-03-08, 00:26:05,VALID,1004.16,VALID,0,VALID,88.2967,VALID,0,VALID,24.8327,VALID,52,VALID,0,
2009-03-08, 00:27:05,VALID,1004.15,VALID,0,VALID,88.3958,VALID,0,VALID,24.8308,VALID,54,VALID,0.217187,
2009-03-08, 00:28:05,VALID,1004.16,VALID,0,VALID,88.9146,VALID,0,VALID,24.8716,VALID,92,VALID,0.235938,
2009-03-08, 00:29:05,VALID,1004.14,VALID,0,VALID,89.1511,VALID,0,VALID,24.8716,VALID,92,VALID,0.0328125,
2009-03-08, 00:30:05,VALID,1004.13,VALID,0,VALID,89.3189,VALID,0,VALID,24.8308,VALID,92,VALID,0.103906,
2009-03-08, 00:31:05,VALID,1004.15,VALID,0,VALID,89.2808,VALID,0,VALID,24.8327,VALID,92,VALID,0,
2009-03-08, 00:32:05,VALID,1004.13,VALID,0,VALID,89.0367,VALID,0,VALID,24.8132,VALID,92,VALID,0,
2009-03-08, 00:33:05,VALID,1004.13,VALID,0,VALID,89.0443,VALID,0,VALID,24.7529,VALID,92,VALID,0,
2009-03-08, 00:34:05,VALID,1004.1,VALID,0,VALID,89.38,VALID,0,VALID,24.7743,VALID,92,VALID,0,
2009-03-08, 00:35:05,VALID,1004.12,VALID,0,VALID,89.3571,VALID,0,VALID,24.7548,VALID,92,VALID,0,
2009-03-08, 00:36:05,VALID,1004.11,VALID,0,VALID,89.4715,VALID,0,VALID,24.714,VALID,92,VALID,0.21875,
2009-03-08, 00:37:05,VALID,1004.14,VALID,0,VALID,89.6699,VALID,0,VALID,24.7353,VALID,92,VALID,0.327344,
2009-03-08, 00:38:05,VALID,1004.13,VALID,0,VALID,90.1047,VALID,0.100563,VALID,24.7159,VALID,92,VALID,0.297656,
2009-03-08, 00:39:04,VALID,1004.13,VALID,0,VALID,90.2344,VALID,0,VALID,24.6964,VALID,92,VALID,0.213672,
2009-03-08, 00:40:04,VALID,1004.12,VALID,0,VALID,90.448,VALID,0,VALID,24.6574,VALID,92,VALID,0.323047,
2009-03-08, 00:41:04,VALID,1004.08,VALID,0,VALID,90.4862,VALID,0,VALID,24.6185,VALID,92,VALID,0.310547,
2009-03-08, 00:42:04,VALID,1004.06,VALID,0,VALID,90.5624,VALID,0,VALID,24.5796,VALID,92,VALID,0.244141,
2009-03-08, 00:43:04,VALID,1004.03,VALID,0,VALID,90.7532,VALID,0,VALID,24.5193,VALID,92,VALID,0.133984,
2009-03-08, 00:44:04,VALID,1004,VALID,0,VALID,90.9668,VALID,0,VALID,24.5193,VALID,92,VALID,0.0683594,
2009-03-08, 00:45:04,VALID,1003.97,VALID,0,VALID,91.0965,VALID,0.100563,VALID,24.5406,VALID,92,VALID,0.109766,
2009-03-08, 00:46:04,VALID,1003.97,VALID,0,VALID,91.1041,VALID,0,VALID,24.4998,VALID,92,VALID,0,
2009-03-08, 00:47:04,VALID,1003.91,VALID,0,VALID,91.1422,VALID,0,VALID,24.5017,VALID,92,VALID,0.0414063,
2009-03-08, 00:48:04,VALID,1003.9,VALID,0,VALID,91.188,VALID,0,VALID,24.4822,VALID,92,VALID,0.535547,
2009-03-08, 00:49:04,VALID,1003.89,VALID,0,VALID,91.2872,VALID,0.100563,VALID,24.4822,VALID,92,VALID,0.0015625,
2009-03-08, 00:50:04,VALID,1003.85,VALID,0,VALID,91.2338,VALID,0,VALID,24.4628,VALID,92,VALID,0.301172,
2009-03-08, 00:51:04,VALID,1003.83,VALID,0,VALID,91.2872,VALID,0,VALID,24.4628,VALID,92,VALID,0.260156,
2009-03-08, 00:52:04,VALID,1003.84,VALID,0,VALID,91.3558,VALID,0.100563,VALID,24.4414,VALID,92,VALID,0.0464844,
2009-03-08, 00:53:04,VALID,1003.8,VALID,0,VALID,91.1041,VALID,0,VALID,24.4238,VALID,92,VALID,0.343359,
2009-03-08, 00:54:04,VALID,1003.78,VALID,0,VALID,90.9744,VALID,0,VALID,24.4238,VALID,92,VALID,0.0328125,
2009-03-08, 00:55:04,VALID,1003.78,VALID,0,VALID,90.982,VALID,0,VALID,24.4238,VALID,92,VALID,0.0210938,
2009-03-08, 00:56:04,VALID,1003.75,VALID,0,VALID,91.0888,VALID,0,VALID,24.4414,VALID,92,VALID,0.134766,
2009-03-08, 00:57:04,VALID,1003.74,VALID,0,VALID,91.0507,VALID,0,VALID,24.4609,VALID,92,VALID,0.302734,
2009-03-08, 00:58:04,VALID,1003.71,VALID,0,VALID,91.0202,VALID,0,VALID,24.4841,VALID,92,VALID,0.159766,
2009-03-08, 00:59:04,VALID,1003.68,VALID,0,VALID,90.982,VALID,0,VALID,24.4433,VALID,92,VALID,0.533203,
2009-03-08, 01:00:04,VALID,1003.67,VALID,0,VALID,90.7989,VALID,0,VALID,24.4433,VALID,92,VALID,0.435547,
2009-03-08, 01:01:04,VALID,1003.64,VALID,0,VALID,90.8752,VALID,0,VALID,24.4628,VALID,91,VALID,0.387109,
2009-03-08, 01:02:04,VALID,1003.61,VALID,0,VALID,90.8752,VALID,0,VALID,24.422,VALID,91,VALID,0.224219,
2009-03-08, 01:03:04,VALID,1003.61,VALID,0,VALID,90.9134,VALID,0,VALID,24.4628,VALID,91,VALID,0.0320312,
2009-03-08, 01:04:04,VALID,1003.58,VALID,0,VALID,90.8905,VALID,0,VALID,24.4238,VALID,91,VALID,0.184375,
2009-03-08, 01:05:04,VALID,1003.59,VALID,0,VALID,90.9897,VALID,0.100563,VALID,24.4238,VALID,91,VALID,0,
2009-03-08, 01:06:04,VALID,1003.56,VALID,0,VALID,91.0583,VALID,0,VALID,24.4025,VALID,91,VALID,0.0660156,
2009-03-08, 01:07:04,VALID,1003.56,VALID,0,VALID,91.0812,VALID,0,VALID,24.4043,VALID,91,VALID,0.136328,
2009-03-08, 01:08:04,VALID,1003.49,VALID,0,VALID,91.2796,VALID,0.100563,VALID,24.4043,VALID,91,VALID,0.280078,
2009-03-08, 01:09:04,VALID,1003.49,VALID,0,VALID,91.2872,VALID,0,VALID,24.3654,VALID,91,VALID,0.563281,
2009-03-08, 01:10:04,VALID,1003.47,VALID,0,VALID,91.4092,VALID,0,VALID,24.3867,VALID,93,VALID,0.374219,
2009-03-08, 01:11:04,VALID,1003.48,VALID,0,VALID,91.4626,VALID,0,VALID,24.3246,VALID,93,VALID,0.391406,
2009-03-08, 01:12:04,VALID,1003.43,VALID,0,VALID,91.4779,VALID,0,VALID,24.3265,VALID,93,VALID,0.589453,
2009-03-08, 01:13:04,VALID,1003.45,VALID,0,VALID,91.5847,VALID,0,VALID,24.3265,VALID,93,VALID,0.510547,
2009-03-08, 01:14:04,VALID,1003.46,VALID,0,VALID,91.6457,VALID,0,VALID,24.307,VALID,83,VALID,0.286719,
2009-03-08, 01:15:04,VALID,1003.45,VALID,0,VALID,91.7449,VALID,0,VALID,24.307,VALID,25,VALID,0.545313,
2009-03-08, 01:16:04,VALID,1003.48,VALID,0,VALID,91.8136,VALID,0,VALID,24.307,VALID,25,VALID,0.333984,
2009-03-08, 01:17:04,VALID,1003.45,VALID,0,VALID,91.9509,VALID,0,VALID,24.3265,VALID,25,VALID,0.320313,
2009-03-08, 01:18:04,VALID,1003.49,VALID,0,VALID,91.8975,VALID,0.100563,VALID,24.307,VALID,25,VALID,0.780859,
2009-03-08, 01:19:04,VALID,1003.52,VALID,0,VALID,91.9433,VALID,0,VALID,24.307,VALID,25,VALID,0.430859,
2009-03-08, 01:20:04,VALID,1003.53,VALID,0,VALID,91.9204,VALID,0,VALID,24.2857,VALID,25,VALID,0.366406,
2009-03-08, 01:21:04,VALID,1003.56,VALID,0,VALID,91.8822,VALID,0,VALID,24.307,VALID,25,VALID,0.325391,
2009-03-08, 01:22:04,VALID,1003.58,VALID,0,VALID,91.9509,VALID,0,VALID,24.307,VALID,25,VALID,0.114844,
2009-03-08, 01:23:04,VALID,1003.58,VALID,0,VALID,92.0348,VALID,0,VALID,24.3265,VALID,25,VALID,0.303906,
2009-03-08, 01:24:04,VALID,1003.57,VALID,0,VALID,91.8822,VALID,0,VALID,24.307,VALID,78,VALID,0.540625,
2009-03-08, 01:25:04,VALID,1003.58,VALID,0,VALID,91.1728,VALID,0.100563,VALID,24.2857,VALID,21,VALID,1.22617,
2009-03-08, 01:26:04,VALID,1003.58,VALID,0,VALID,90.9744,VALID,0,VALID,24.3849,VALID,35,VALID,0.9875,
2009-03-08, 01:27:04,VALID,1003.55,VALID,0,VALID,90.9591,VALID,0,VALID,24.4238,VALID,33,VALID,0.269922,
2009-03-08, 01:28:04,VALID,1003.54,VALID,0,VALID,90.9134,VALID,0,VALID,24.4433,VALID,33,VALID,0.0671875,
2009-03-08, 01:29:04,VALID,1003.57,VALID,0,VALID,90.5548,VALID,0,VALID,24.4238,VALID,96,VALID,1.17344,
2009-03-08, 01:30:04,VALID,1003.55,VALID,0,VALID,90.3717,VALID,0,VALID,24.4433,VALID,35,VALID,0.621875,
2009-03-08, 01:31:04,VALID,1003.56,VALID,0,VALID,90.1505,VALID,0,VALID,24.4433,VALID,54,VALID,0.623828,
2009-03-08, 01:32:04,VALID,1003.55,VALID,0,VALID,89.8377,VALID,0.100563,VALID,24.422,VALID,87,VALID,0.446094,
2009-03-08, 01:33:04,VALID,1003.56,VALID,0,VALID,89.6775,VALID,0.100563,VALID,24.5035,VALID,76,VALID,0.463281,
2009-03-08, 01:34:04,VALID,1003.62,VALID,0,VALID,89.5402,VALID,0,VALID,24.4822,VALID,45,VALID,0.568359,
2009-03-08, 01:35:04,VALID,1003.61,VALID,0,VALID,89.3876,VALID,0,VALID,24.4822,VALID,63,VALID,0.617188,
2009-03-08, 01:36:04,VALID,1003.6,VALID,0,VALID,89.1206,VALID,0,VALID,24.4609,VALID,103,VALID,0.672266,
2009-03-08, 01:37:04,VALID,1003.6,VALID,0,VALID,89.0748,VALID,0,VALID,24.4628,VALID,102,VALID,0.339844,
2009-03-08, 01:38:04,VALID,1003.61,VALID,0,VALID,89.1587,VALID,0,VALID,24.4822,VALID,33,VALID,0.590234,
2009-03-08, 01:39:04,VALID,1003.58,VALID,0,VALID,89.174,VALID,0,VALID,24.4414,VALID,54,VALID,0.638281,
2009-03-08, 01:40:04,VALID,1003.58,VALID,0,VALID,89.0443,VALID,0,VALID,24.4238,VALID,5,VALID,0.673828,
2009-03-08, 01:41:04,VALID,1003.54,VALID,0,VALID,89.1816,VALID,0,VALID,24.4238,VALID,29,VALID,0.196875,
2009-03-08, 01:42:04,VALID,1003.55,VALID,0,VALID,89.029,VALID,0,VALID,24.4238,VALID,23,VALID,1.24297,
2009-03-08, 01:43:04,VALID,1003.52,VALID,0,VALID,89.0214,VALID,0,VALID,24.4025,VALID,349,VALID,0.471484,
2009-03-08, 01:44:04,VALID,1003.52,VALID,0,VALID,89.2274,VALID,0.100563,VALID,24.383,VALID,59,VALID,0.546484,
2009-03-08, 01:45:04,VALID,1003.45,VALID,0,VALID,89.3342,VALID,0,VALID,24.3849,VALID,110,VALID,0.25625,
2009-03-08, 01:46:04,VALID,1003.43,VALID,0,VALID,89.3266,VALID,0,VALID,24.3654,VALID,355,VALID,0.6875,
2009-03-08, 01:47:04,VALID,1003.35,VALID,0,VALID,89.3037,VALID,0,VALID,24.3246,VALID,28,VALID,1.07539,
2009-03-08, 01:48:04,VALID,1003.33,VALID,0,VALID,89.1664,VALID,0,VALID,24.3052,VALID,359,VALID,1.52266,
2009-03-08, 01:49:04,VALID,1003.29,VALID,0,VALID,89.235,VALID,0,VALID,24.2857,VALID,6,VALID,1.48398,
2009-03-08, 01:50:04,VALID,1003.3,VALID,0,VALID,88.9833,VALID,0,VALID,24.2662,VALID,28,VALID,1.85586,
2009-03-08, 01:51:04,VALID,1003.28,VALID,0,VALID,89.113,VALID,0,VALID,24.3052,VALID,25,VALID,1.52305,
2009-03-08, 01:52:04,VALID,1003.27,VALID,0,VALID,89.296,VALID,0,VALID,24.307,VALID,1,VALID,1.01641,
2009-03-08, 01:53:04,VALID,1003.3,VALID,0,VALID,89.0977,VALID,0,VALID,24.307,VALID,40,VALID,1.53984,
2009-03-08, 01:54:04,VALID,1003.3,VALID,0,VALID,89.113,VALID,0,VALID,24.307,VALID,32,VALID,1.69219,
2009-03-08, 01:55:04,VALID,1003.33,VALID,0,VALID,89.3342,VALID,0,VALID,24.2857,VALID,24,VALID,0.977344,
2009-03-08, 01:56:04,VALID,1003.32,VALID,0,VALID,89.3342,VALID,0,VALID,24.2662,VALID,8,VALID,0.675,
2009-03-08, 01:57:04,VALID,1003.34,VALID,0,VALID,89.3952,VALID,0.100563,VALID,24.2662,VALID,40,VALID,0.740625,
2009-03-08, 01:58:04,VALID,1003.31,VALID,0,VALID,89.5631,VALID,0.100563,VALID,24.2255,VALID,23,VALID,1.20391,
2009-03-08, 01:59:04,VALID,1003.32,VALID,0,VALID,89.6241,VALID,0.100563,VALID,24.2273,VALID,18,VALID,0.757813,
2009-03-08, 02:00:04,VALID,1003.29,VALID,0,VALID,89.8224,VALID,0.100563,VALID,24.2273,VALID,14,VALID,1.29727,
2009-03-08, 02:01:04,VALID,1003.27,VALID,0,VALID,89.8224,VALID,0,VALID,24.2097,VALID,41,VALID,0.889844,
2009-03-08, 02:02:04,VALID,1003.28,VALID,0,VALID,90.0284,VALID,0,VALID,24.2291,VALID,22,VALID,1.13477,
2009-03-08, 02:03:04,VALID,1003.26,VALID,0,VALID,90.0589,VALID,0,VALID,24.2291,VALID,4,VALID,0.951563,
2009-03-08, 02:04:04,VALID,1003.25,VALID,0,VALID,89.9674,VALID,0,VALID,24.2078,VALID,29,VALID,1.29961,
2009-03-08, 02:05:04,VALID,1003.26,VALID,0,VALID,89.6775,VALID,0,VALID,24.2291,VALID,5,VALID,1.71406,
2009-03-08, 02:06:04,VALID,1003.25,VALID,0,VALID,89.5936,VALID,0.100563,VALID,24.2273,VALID,35,VALID,1.85938,
2009-03-08, 02:07:04,VALID,1003.24,VALID,0,VALID,89.2884,VALID,0,VALID,24.2273,VALID,24,VALID,2.24023,
2009-03-08, 02:08:04,VALID,1003.27,VALID,0,VALID,89.4028,VALID,0,VALID,24.2875,VALID,34,VALID,1.30039,
2009-03-08, 02:09:04,VALID,1003.27,VALID,0,VALID,89.3189,VALID,0,VALID,24.2662,VALID,32,VALID,1.66562,
2009-03-08, 02:10:04,VALID,1003.27,VALID,0,VALID,89.3494,VALID,0,VALID,24.2681,VALID,13,VALID,1.29414,
2009-03-08, 02:11:04,VALID,1003.29,VALID,0,VALID,89.4105,VALID,0,VALID,24.2681,VALID,29,VALID,2.08008,
2009-03-08, 02:12:04,VALID,1003.33,VALID,0,VALID,89.3571,VALID,0,VALID,24.2486,VALID,33,VALID,2.34609,
2009-03-08, 02:13:04,VALID,1003.33,VALID,0,VALID,89.2274,VALID,0,VALID,24.2486,VALID,39,VALID,1.62461,
2009-03-08, 02:14:04,VALID,1003.35,VALID,0,VALID,88.8917,VALID,0,VALID,24.2486,VALID,17,VALID,1.7207,
2009-03-08, 02:15:04,VALID,1003.37,VALID,0,VALID,88.8154,VALID,0,VALID,24.2486,VALID,46,VALID,1.87461,
2009-03-08, 02:16:04,VALID,1003.4,VALID,0,VALID,88.8841,VALID,0,VALID,24.2273,VALID,30,VALID,2.10977,
2009-03-08, 02:17:04,VALID,1003.42,VALID,0,VALID,88.9909,VALID,0,VALID,24.2681,VALID,18,VALID,1.28398,
2009-03-08, 02:18:04,VALID,1003.39,VALID,0,VALID,89.029,VALID,0,VALID,24.2291,VALID,29,VALID,1.10352,
2009-03-08, 02:19:04,VALID,1003.43,VALID,0,VALID,89.2655,VALID,0,VALID,24.2078,VALID,31,VALID,0.46875,
2009-03-08, 02:20:04,VALID,1003.47,VALID,0,VALID,89.2503,VALID,0,VALID,24.1902,VALID,59,VALID,1.47344,
2009-03-08, 02:21:04,VALID,1003.48,VALID,0,VALID,89.3876,VALID,0.100563,VALID,24.1902,VALID,33,VALID,1.21641,
2009-03-08, 02:22:04,VALID,1003.48,VALID,0,VALID,89.5478,VALID,0,VALID,24.1513,VALID,28,VALID,0.8875,
2009-03-08, 02:23:04,VALID,1003.49,VALID,0,VALID,89.7233,VALID,0,VALID,24.1513,VALID,62,VALID,1.4457,
2009-03-08, 02:24:04,VALID,1003.47,VALID,0,VALID,89.853,VALID,0,VALID,24.1318,VALID,64,VALID,1.60195,
2009-03-08, 02:25:04,VALID,1003.46,VALID,0,VALID,90.0055,VALID,0,VALID,24.1105,VALID,62,VALID,1.72109,
2009-03-08, 02:26:04,VALID,1003.47,VALID,0,VALID,90.181,VALID,0.100563,VALID,24.1318,VALID,38,VALID,1.23555,
2009-03-08, 02:27:04,VALID,1003.44,VALID,0,VALID,90.242,VALID,0,VALID,24.091,VALID,35,VALID,1.24844,
2009-03-08, 02:28:04,VALID,1003.44,VALID,0,VALID,90.3336,VALID,0.100563,VALID,24.0716,VALID,71,VALID,2.15859,
2009-03-08, 02:29:04,VALID,1003.42,VALID,0,VALID,90.5014,VALID,0,VALID,24.1123,VALID,58,VALID,1.09336,
2009-03-08, 02:30:04,VALID,1003.38,VALID,0,VALID,90.593,VALID,0,VALID,24.0716,VALID,39,VALID,0.80625,
2009-03-08, 02:31:04,VALID,1003.35,VALID,0,VALID,90.715,VALID,0,VALID,24.0734,VALID,11,VALID,0.713672,
2009-03-08, 02:32:04,VALID,1003.32,VALID,0,VALID,90.6464,VALID,0.100563,VALID,24.0521,VALID,27,VALID,2.20039,
2009-03-08, 02:33:04,VALID,1003.32,VALID,0,VALID,90.776,VALID,0,VALID,24.0539,VALID,44,VALID,1.47187,
2009-03-08, 02:34:04,VALID,1003.3,VALID,0,VALID,90.7913,VALID,0,VALID,24.0539,VALID,26,VALID,2.19844,
2009-03-08, 02:35:04,VALID,1003.29,VALID,0,VALID,90.8905,VALID,0.100563,VALID,24.0132,VALID,74,VALID,2.16953,
2009-03-08, 02:36:04,VALID,1003.27,VALID,0,VALID,91.0202,VALID,0,VALID,24.0326,VALID,29,VALID,0.991797,
2009-03-08, 02:37:04,VALID,1003.29,VALID,0,VALID,91.0812,VALID,0,VALID,24.0345,VALID,34,VALID,1.43555,
2009-03-08, 02:38:04,VALID,1003.28,VALID,0,VALID,91.0965,VALID,0.100563,VALID,24.0345,VALID,55,VALID,0.835156,
2009-03-08, 02:39:04,VALID,1003.25,VALID,0,VALID,91.1117,VALID,0,VALID,24.015,VALID,43,VALID,1.83789,
2009-03-08, 02:40:04,VALID,1003.3,VALID,0,VALID,91.1956,VALID,0.100563,VALID,24.0132,VALID,39,VALID,1.12461,
2009-03-08, 02:41:04,VALID,1003.24,VALID,0,VALID,91.2185,VALID,0,VALID,23.9937,VALID,81,VALID,1.53555,
2009-03-08, 02:42:04,VALID,1003.25,VALID,0,VALID,91.2719,VALID,0.100563,VALID,23.9937,VALID,87,VALID,1.29453,
2009-03-08, 02:43:04,VALID,1003.24,VALID,0,VALID,91.2643,VALID,0.100563,VALID,23.9937,VALID,75,VALID,1.50156,
2009-03-08, 02:44:04,VALID,1003.25,VALID,0,VALID,91.2872,VALID,0,VALID,23.9937,VALID,43,VALID,1.07422,
2009-03-08, 02:45:04,VALID,1003.25,VALID,0,VALID,91.3482,VALID,0,VALID,23.9937,VALID,44,VALID,0.536328,
2009-03-08, 02:46:04,VALID,1003.24,VALID,0,VALID,91.3787,VALID,0,VALID,24.015,VALID,24,VALID,1.57461,
2009-03-08, 02:47:04,VALID,1003.23,VALID,0,VALID,91.4703,VALID,0,VALID,23.9742,VALID,21,VALID,0.414844,
2009-03-08, 02:48:04,VALID,1003.25,VALID,0,VALID,91.5084,VALID,0,VALID,23.9742,VALID,73,VALID,0.917969,
2009-03-08, 02:49:04,VALID,1003.26,VALID,0,VALID,91.4474,VALID,0,VALID,23.9742,VALID,24,VALID,2.00703,
2009-03-08, 02:50:04,VALID,1003.26,VALID,0,VALID,91.5161,VALID,0.100563,VALID,23.9548,VALID,82,VALID,1.43672,
2009-03-08, 02:51:04,VALID,1003.27,VALID,0,VALID,91.4932,VALID,0.100563,VALID,23.9548,VALID,13,VALID,1.73242,
2009-03-08, 02:52:04,VALID,1003.27,VALID,0,VALID,91.5389,VALID,0.100563,VALID,23.9761,VALID,27,VALID,1.48008,
2009-03-08, 02:53:04,VALID,1003.28,VALID,0,VALID,91.6,VALID,0,VALID,23.9548,VALID,47,VALID,0.632031,
2009-03-08, 02:54:04,VALID,1003.27,VALID,0,VALID,91.5847,VALID,0.100563,VALID,23.9353,VALID,33,VALID,1.18398,
2009-03-08, 02:55:04,VALID,1003.22,VALID,0,VALID,91.6686,VALID,0,VALID,23.9353,VALID,59,VALID,0.762109,
2009-03-08, 02:56:04,VALID,1003.22,VALID,0,VALID,91.7144,VALID,0,VALID,23.8964,VALID,32,VALID,1.95039,
2009-03-08, 02:57:04,VALID,1003.15,VALID,0,VALID,91.7907,VALID,0,VALID,23.8982,VALID,52,VALID,1.46133,
2009-03-08, 02:58:04,VALID,1003.15,VALID,0,VALID,91.9433,VALID,0.100563,VALID,23.8769,VALID,42,VALID,1.53398,
2009-03-08, 02:59:04,VALID,1003.14,VALID,0,VALID,92.0043,VALID,0,VALID,23.8769,VALID,91,VALID,2.37109,
2009-03-08, 03:00:04,VALID,1003.09,VALID,0,VALID,92.0119,VALID,0,VALID,23.8362,VALID,78,VALID,1.59102,
2009-03-08, 03:01:04,VALID,1003.09,VALID,0,VALID,91.9509,VALID,0,VALID,23.8575,VALID,28,VALID,1.81328,
2009-03-08, 03:02:04,VALID,1003.1,VALID,0,VALID,91.8365,VALID,0.100563,VALID,23.8556,VALID,65,VALID,1.57383,
2009-03-08, 03:03:04,VALID,1003.1,VALID,0,VALID,91.6686,VALID,0,VALID,23.8575,VALID,42,VALID,2.12969,
2009-03-08, 03:04:04,VALID,1003.1,VALID,0,VALID,91.4779,VALID,0,VALID,23.8575,VALID,38,VALID,1.28789,
2009-03-08, 03:05:04,VALID,1003.07,VALID,0,VALID,91.4932,VALID,0.100563,VALID,23.8769,VALID,68,VALID,0.876172,
2009-03-08, 03:06:04,VALID,1003.1,VALID,0,VALID,91.5008,VALID,0.100563,VALID,23.838,VALID,49,VALID,1.19375,
2009-03-08, 03:07:04,VALID,1003.1,VALID,0,VALID,91.4779,VALID,0,VALID,23.8185,VALID,23,VALID,1.27344,
2009-03-08, 03:08:04,VALID,1003.08,VALID,0,VALID,91.4092,VALID,0.100563,VALID,23.838,VALID,64,VALID,1.96563,
2009-03-08, 03:09:04,VALID,1003.11,VALID,0,VALID,91.5542,VALID,0.100563,VALID,23.8185,VALID,37,VALID,1.60938,
2009-03-08, 03:10:04,VALID,1003.15,VALID,0,VALID,91.5084,VALID,0.100563,VALID,23.7991,VALID,59,VALID,1.1332,
2009-03-08, 03:11:04,VALID,1003.09,VALID,0,VALID,91.3482,VALID,0.100563,VALID,23.7796,VALID,25,VALID,2.94844,
2009-03-08, 03:12:04,VALID,1003.12,VALID,0,VALID,91.4092,VALID,0,VALID,23.7796,VALID,26,VALID,2.14258,
2009-03-08, 03:13:04,VALID,1003.09,VALID,0,VALID,91.5008,VALID,0.100563,VALID,23.7796,VALID,26,VALID,2.17422,
2009-03-08, 03:14:04,VALID,1003.08,VALID,0,VALID,91.4779,VALID,0.100563,VALID,23.7796,VALID,59,VALID,0.883594,
2009-03-08, 03:15:04,VALID,1003.04,VALID,0,VALID,91.5389,VALID,0.100563,VALID,23.7601,VALID,27,VALID,1.84258,
2009-03-08, 03:16:04,VALID,1003.06,VALID,0,VALID,91.5923,VALID,0,VALID,23.7407,VALID,45,VALID,0.7375,
2009-03-08, 03:17:04,VALID,1003.04,VALID,0,VALID,91.6686,VALID,0.100563,VALID,23.7407,VALID,39,VALID,1.34336,
2009-03-08, 03:18:04,VALID,1003.06,VALID,0,VALID,91.5542,VALID,0.100563,VALID,23.7,VALID,79,VALID,2.71719,
2009-03-08, 03:19:04,VALID,1003.03,VALID,0,VALID,91.6534,VALID,0.100563,VALID,23.7,VALID,32,VALID,1.48672,
2009-03-08, 03:20:04,VALID,1003.01,VALID,0,VALID,91.661,VALID,0,VALID,23.7212,VALID,29,VALID,1.37031,
2009-03-08, 03:21:04,VALID,1003.03,VALID,0,VALID,91.6686,VALID,0,VALID,23.6823,VALID,27,VALID,1.73516,
2009-03-08, 03:22:04,VALID,1003.06,VALID,0,VALID,91.6686,VALID,0.100563,VALID,23.6823,VALID,32,VALID,1.28437,
2009-03-08, 03:23:04,VALID,1003.08,VALID,0,VALID,91.6381,VALID,0,VALID,23.6823,VALID,61,VALID,1.92852,
2009-03-08, 03:24:04,VALID,1003.05,VALID,0,VALID,91.6381,VALID,0,VALID,23.6823,VALID,20,VALID,1.97383,
2009-03-08, 03:25:04,VALID,1003.04,VALID,0,VALID,91.722,VALID,0,VALID,23.7017,VALID,65,VALID,0.991406,
2009-03-08, 03:26:04,VALID,1003.02,VALID,0,VALID,91.6076,VALID,0,VALID,23.6628,VALID,18,VALID,2.28516,
2009-03-08, 03:27:04,VALID,1003.04,VALID,0,VALID,91.722,VALID,0.100563,VALID,23.6628,VALID,28,VALID,2.24531,
2009-03-08, 03:28:04,VALID,1002.98,VALID,0,VALID,91.5847,VALID,0.100563,VALID,23.6434,VALID,28,VALID,2.60039,
2009-03-08, 03:29:04,VALID,1003.02,VALID,0,VALID,91.5923,VALID,0,VALID,23.6823,VALID,28,VALID,1.58789,
2009-03-08, 03:30:04,VALID,1003.01,VALID,0,VALID,91.6457,VALID,0.100563,VALID,23.6823,VALID,15,VALID,1.65742,
2009-03-08, 03:31:04,VALID,1003.02,VALID,0,VALID,91.5389,VALID,0.100563,VALID,23.6823,VALID,41,VALID,1.38711,
2009-03-08, 03:32:04,VALID,1003.04,VALID,0,VALID,91.5389,VALID,0,VALID,23.6628,VALID,34,VALID,1.74219,
2009-03-08, 03:33:04,VALID,1003.05,VALID,0,VALID,91.5161,VALID,0,VALID,23.6823,VALID,27,VALID,1.45117,
2009-03-08, 03:34:04,VALID,1003.07,VALID,0,VALID,91.5847,VALID,0,VALID,23.6628,VALID,30,VALID,0.768359,
2009-03-08, 03:35:04,VALID,1003.04,VALID,0,VALID,91.5771,VALID,0,VALID,23.6841,VALID,52,VALID,0.990234,
2009-03-08, 03:36:04,VALID,1003.05,VALID,0,VALID,91.5695,VALID,0,VALID,23.6628,VALID,45,VALID,1.35469,
2009-03-08, 03:37:04,VALID,1003.06,VALID,0,VALID,91.5008,VALID,0,VALID,23.6628,VALID,52,VALID,1.26094,
2009-03-08, 03:38:04,VALID,1003.07,VALID,0,VALID,91.5847,VALID,0,VALID,23.6628,VALID,33,VALID,1.28086,
2009-03-08, 03:39:04,VALID,1003.05,VALID,0,VALID,91.4398,VALID,0,VALID,23.6841,VALID,41,VALID,1.64766,
2009-03-08, 03:40:04,VALID,1003.03,VALID,0,VALID,91.5008,VALID,0,VALID,23.6823,VALID,27,VALID,0.960156,
2009-03-08, 03:41:04,VALID,1003.01,VALID,0,VALID,91.4169,VALID,0,VALID,23.6823,VALID,26,VALID,1.83281,
2009-03-08, 03:42:04,VALID,1003,VALID,0,VALID,91.4169,VALID,0.100563,VALID,23.6823,VALID,35,VALID,0.979297,
2009-03-08, 03:43:04,VALID,1003,VALID,0,VALID,91.3558,VALID,0.100563,VALID,23.7017,VALID,92,VALID,0.3125,
2009-03-08, 03:44:04,VALID,1002.99,VALID,0,VALID,91.3635,VALID,0,VALID,23.7425,VALID,29,VALID,0.380469,
2009-03-08, 03:45:04,VALID,1002.98,VALID,0,VALID,91.3253,VALID,0,VALID,23.7425,VALID,48,VALID,0.494531,